�������l�o���
Date,Time,MP-1(��Sv/h),MP-2(��Sv/h),MP-3(��Sv/h),MP-4(��Sv/h),MP-5(��Sv/h),MP-6(��Sv/h),MP-7(��Sv/h),����,����(m/s),���J
2015/10/28,00:00,0.515,0.292,0.538,0.496,0.458,0.240,0.210,��쐼,10.8,��
2015/10/28,00:10,0.514,0.291,0.537,0.494,0.459,0.240,0.211,��쐼,11.5,��
2015/10/28,00:20,0.518,0.293,0.532,0.493,0.456,0.241,0.210,��쐼,10.7,��
2015/10/28,00:30,0.512,0.290,0.542,0.495,0.462,0.242,0.213,��쐼,10.9,��
2015/10/28,00:40,0.517,0.294,0.533,0.491,0.456,0.240,0.210,��쐼,11.3,��
2015/10/28,00:50,0.514,0.291,0.539,0.497,0.460,0.241,0.210,��쐼,10.6,��
2015/10/28,01:00,0.515,0.292,0.537,0.490,0.458,0.240,0.210,��쐼,10.8,��
2015/10/28,01:10,0.517,0.292,0.534,0.496,0.459,0.242,0.210,��쐼,11.5,��
2015/10/28,01:20,0.513,0.292,0.538,0.495,0.461,0.241,0.211,��쐼,11.2,��
2015/10/28,01:30,0.518,0.293,0.534,0.491,0.456,0.241,0.210,��쐼,11.8,��
2015/10/28,01:40,0.513,0.292,0.538,0.497,0.460,0.240,0.211,��쐼,12.4,��
2015/10/28,01:50,0.515,0.293,0.536,0.491,0.456,0.240,0.209,��쐼,11.3,��
2015/10/28,02:00,0.517,0.291,0.536,0.496,0.460,0.242,0.211,��쐼,9.5,��
2015/10/28,02:10,0.512,0.292,0.539,0.493,0.457,0.239,0.211,��쐼,7.0,��
2015/10/28,02:20,0.518,0.293,0.533,0.493,0.455,0.240,0.211,��,5.2,��
2015/10/28,02:30,0.515,0.291,0.540,0.496,0.461,0.240,0.211,��쐼,7.5,��
2015/10/28,02:40,0.516,0.294,0.539,0.491,0.456,0.241,0.210,��쐼,9.5,��
2015/10/28,02:50,0.517,0.291,0.536,0.496,0.461,0.241,0.212,��쐼,10.1,�L
2015/10/28,03:00,0.513,0.295,0.541,0.493,0.458,0.239,0.210,��쐼,9.2,��
2015/10/28,03:10,0.518,0.292,0.534,0.492,0.458,0.241,0.211,�쐼,7.6,��
2015/10/28,03:20,0.515,0.292,0.541,0.496,0.460,0.241,0.209,�쐼,8.1,�L
2015/10/28,03:30,0.516,0.293,0.537,0.492,0.458,0.242,0.212,��쐼,10.8,�L
2015/10/28,03:40,0.518,0.292,0.536,0.498,0.462,0.241,0.210,�쐼,9.2,�L
2015/10/28,03:50,0.513,0.293,0.539,0.494,0.456,0.242,0.211,�쐼,9.3,��
2015/10/28,04:00,0.519,0.291,0.535,0.494,0.461,0.241,0.212,�쐼,7.5,��
2015/10/28,04:10,0.512,0.294,0.542,0.496,0.458,0.240,0.211,���쐼,6.5,��
2015/10/28,04:20,0.518,0.292,0.536,0.492,0.459,0.243,0.211,�쐼,4.3,��
2015/10/28,04:30,0.517,0.294,0.536,0.497,0.459,0.240,0.210,��쐼,1.4,��
2015/10/28,04:40,0.513,0.292,0.541,0.494,0.455,0.242,0.212,�쐼,4.0,��
2015/10/28,04:50,0.517,0.291,0.536,0.494,0.461,0.241,0.210,�쐼,4.1,��
2015/10/28,05:00,0.513,0.294,0.540,0.495,0.455,0.241,0.212,�쐼,3.9,��
2015/10/28,05:10,0.519,0.291,0.538,0.492,0.460,0.241,0.210,���쐼,4.5,��
2015/10/28,05:20,0.514,0.294,0.537,0.498,0.457,0.241,0.211,�쐼,3.5,��
2015/10/28,05:30,0.515,0.291,0.541,0.492,0.459,0.242,0.210,�쐼,4.2,��
2015/10/28,05:40,0.515,0.293,0.535,0.494,0.457,0.241,0.210,���쐼,4.4,��
2015/10/28,05:50,0.515,0.291,0.541,0.494,0.458,0.241,0.209,��,3.7,��
2015/10/28,06:00,0.519,0.293,0.536,0.494,0.462,0.240,0.211,��,3.7,��
2015/10/28,06:10,0.514,0.291,0.536,0.495,0.457,0.242,0.210,-,CALM,��
2015/10/28,06:20,0.519,0.292,0.538,0.492,0.460,0.240,0.210,��,2.2,��
2015/10/28,06:30,0.513,0.293,0.536,0.498,0.461,0.242,0.209,��,3.1,��
2015/10/28,06:40,0.518,0.292,0.539,0.492,0.456,0.240,0.210,���k��,2.0,��
2015/10/28,06:50,0.515,0.292,0.535,0.497,0.459,0.241,0.211,���k��,1.7,��
2015/10/28,07:00,0.513,0.291,0.539,0.493,0.454,0.240,0.210,��,1.1,��
2015/10/28,07:10,0.519,0.293,0.536,0.492,0.461,0.241,0.212,��,2.0,��
2015/10/28,07:20,0.511,0.290,0.535,0.496,0.457,0.240,0.211,�쐼,1.2,��
2015/10/28,07:30,0.517,0.294,0.541,0.491,0.458,0.241,0.212,���쐼,2.6,��
2015/10/28,07:40,0.515,0.292,0.534,0.497,0.461,0.242,0.211,���k��,3.5,��
2015/10/28,07:50,0.514,0.293,0.540,0.493,0.456,0.241,0.212,���k��,3.5,��
2015/10/28,08:00,0.517,0.293,0.539,0.493,0.461,0.242,0.212,�k�k��,2.9,��
2015/10/28,08:10,0.512,0.290,0.536,0.496,0.458,0.240,0.210,�k��,2.3,��
2015/10/28,08:20,0.517,0.293,0.541,0.492,0.456,0.241,0.212,�k,2.3,��
2015/10/28,08:30,0.514,0.292,0.535,0.496,0.462,0.240,0.211,�k,3.0,��
2015/10/28,08:40,0.515,0.293,0.540,0.495,0.457,0.242,0.211,�k,1.1,��
2015/10/28,08:50,0.517,0.294,0.540,0.488,0.461,0.242,0.211,�k,1.9,��
2015/10/28,09:00,0.512,0.291,0.533,0.494,0.461,0.241,0.211,�k�k��,4.0,��
2015/10/28,09:10,0.512,0.290,0.543,0.497,0.454,0.240,0.210,�k��,4.4,��
2015/10/28,09:20,0.520,0.290,0.538,0.492,0.455,0.241,0.209,�k�k��,2.1,��
2015/10/28,09:30,0.516,0.290,0.536,0.490,0.461,0.242,0.210,�k�k��,3.6,��
2015/10/28,09:40,0.512,0.290,0.543,0.488,0.458,0.242,0.210,�k�k��,4.6,��
2015/10/28,09:50,0.510,0.292,0.537,0.493,0.455,0.242,0.210,�k��,4.7,��
2015/10/28,10:00,0.509,0.294,0.540,0.496,0.455,0.242,0.209,�k��,5.9,��
2015/10/28,10:10,0.508,0.292,0.541,0.493,0.454,0.242,0.210,�k��,4.6,��
2015/10/28,10:20,0.510,0.294,0.535,0.493,0.460,0.243,0.210,�k��,5.9,��
2015/10/28,10:30,0.514,0.291,0.538,0.490,0.462,0.242,0.210,���k��,7.4,��
2015/10/28,10:40,0.521,0.291,0.540,0.489,0.460,0.242,0.211,���k��,6.1,��
2015/10/28,10:50,0.517,0.291,0.535,0.489,0.458,0.242,0.211,�k��,5.9,��
2015/10/28,11:00,0.514,0.290,0.532,0.492,0.455,0.242,0.211,���k��,5.0,��
2015/10/28,11:10,0.514,0.291,0.540,0.491,0.454,0.242,0.210,�k��,4.2,��
2015/10/28,11:20,0.512,0.291,0.540,0.493,0.456,0.242,0.210,�k��,4.5,��
2015/10/28,11:30,0.512,0.294,0.535,0.492,0.457,0.245,0.211,�k��,8.4,��
2015/10/28,11:40,0.511,0.296,0.534,0.493,0.455,0.243,0.211,�k��,6.9,��
2015/10/28,11:50,0.514,0.294,0.540,0.492,0.457,0.243,0.211,���k��,7.9,��
2015/10/28,12:00,0.520,0.294,0.539,0.494,0.456,0.242,0.211,�k��,6.2,��
2015/10/28,12:10,0.519,0.292,0.536,0.493,0.455,0.242,0.211,�k��,6.6,��
2015/10/28,12:20,0.514,0.291,0.534,0.494,0.462,0.241,0.211,�k��,6.2,��
2015/10/28,12:30,0.518,0.291,0.533,0.495,0.462,0.242,0.210,�k��,7.8,��
2015/10/28,12:40,0.523,0.294,0.532,0.493,0.460,0.245,0.210,�k��,6.8,��
2015/10/28,12:50,0.520,0.295,0.533,0.496,0.459,0.244,0.212,�k�k��,7.5,��
2015/10/28,13:00,0.515,0.294,0.534,0.495,0.459,0.243,0.210,�k�k��,7.7,��
2015/10/28,13:10,0.522,0.292,0.533,0.496,0.455,0.243,0.211,�k�k��,6.5,��
2015/10/28,13:20,0.519,0.291,0.539,0.494,0.461,0.243,0.212,�k�k��,5.1,��
2015/10/28,13:30,0.515,0.294,0.542,0.495,0.462,0.244,0.213,�k��,3.4,��
2015/10/28,13:40,0.516,0.296,0.539,0.496,0.461,0.243,0.211,���k��,2.0,��
2015/10/28,13:50,0.522,0.294,0.537,0.496,0.459,0.241,0.212,�k�k��,4.4,��
2015/10/28,14:00,0.516,0.292,0.536,0.500,0.457,0.243,0.212,�k�k��,4.2,��
2015/10/28,14:10,0.516,0.290,0.541,0.502,0.455,0.242,0.212,�k�k��,8.1,��
2015/10/28,14:20,0.522,0.293,0.549,0.500,0.459,0.241,0.213,�k��,8.0,��
2015/10/28,14:30,0.518,0.295,0.539,0.492,0.464,0.243,0.211,�k��,5.0,��
2015/10/28,14:40,0.516,0.294,0.541,0.502,0.460,0.241,0.211,�k��,4.3,��
2015/10/28,14:50,0.522,0.293,0.544,0.502,0.457,0.242,0.212,�k��,4.1,��
2015/10/28,15:00,0.518,0.296,0.539,0.495,0.465,0.243,0.211,�k�k��,4.2,��
2015/10/28,15:10,0.519,0.294,0.542,0.502,0.463,0.243,0.213,�k,4.3,��
2015/10/28,15:20,0.524,0.297,0.544,0.498,0.461,0.243,0.213,�k,5.0,��
2015/10/28,15:30,0.517,0.296,0.538,0.495,0.465,0.242,0.211,�k,3.4,��
2015/10/28,15:40,0.523,0.293,0.545,0.501,0.460,0.242,0.212,�k�k��,6.1,��
2015/10/28,15:50,0.519,0.295,0.541,0.495,0.465,0.243,0.212,�k�k��,5.4,��
2015/10/28,16:00,0.518,0.294,0.539,0.499,0.462,0.243,0.213,�k�k��,5.6,��
2015/10/28,16:10,0.522,0.295,0.545,0.498,0.461,0.244,0.213,�k,5.5,��
2015/10/28,16:20,0.515,0.294,0.538,0.498,0.463,0.242,0.212,�k�k��,6.2,��
2015/10/28,16:30,0.522,0.295,0.543,0.499,0.459,0.242,0.212,�k�k��,7.0,��
2015/10/28,16:40,0.516,0.293,0.541,0.495,0.465,0.242,0.211,�k�k��,6.3,��
2015/10/28,16:50,0.522,0.294,0.540,0.501,0.459,0.244,0.213,�k�k��,3.9,��
2015/10/28,17:00,0.520,0.293,0.542,0.495,0.463,0.242,0.212,�k�k��,3.8,��
2015/10/28,17:10,0.518,0.294,0.540,0.499,0.458,0.243,0.213,�k,3.6,��
2015/10/28,17:20,0.520,0.293,0.545,0.496,0.465,0.242,0.212,�k,4.7,��
2015/10/28,17:30,0.517,0.293,0.539,0.501,0.459,0.242,0.213,�k�k��,6.0,��
2015/10/28,17:40,0.521,0.294,0.544,0.496,0.463,0.243,0.212,�k,4.5,��
2015/10/28,17:50,0.518,0.293,0.538,0.497,0.457,0.243,0.212,�k,5.0,��
2015/10/28,18:00,0.522,0.294,0.544,0.499,0.462,0.242,0.211,�k,4.1,��
2015/10/28,18:10,0.516,0.293,0.539,0.498,0.459,0.244,0.213,�k,5.9,��
2015/10/28,18:20,0.522,0.294,0.542,0.498,0.463,0.241,0.212,�k,5.6,��
2015/10/28,18:30,0.517,0.294,0.540,0.496,0.459,0.242,0.212,�k,6.0,��
2015/10/28,18:40,0.519,0.295,0.541,0.501,0.463,0.243,0.211,�k,6.1,��
2015/10/28,18:50,0.517,0.295,0.543,0.495,0.461,0.242,0.211,�k,5.4,��
2015/10/28,19:00,0.522,0.294,0.540,0.499,0.461,0.242,0.213,�k,5.6,��
2015/10/28,19:10,0.517,0.294,0.541,0.497,0.459,0.241,0.211,�k,5.1,��
2015/10/28,19:20,0.522,0.294,0.540,0.498,0.462,0.242,0.214,�k,4.4,��
2015/10/28,19:30,0.518,0.294,0.542,0.494,0.458,0.242,0.211,�k,5.4,��
2015/10/28,19:40,0.518,0.294,0.540,0.499,0.463,0.243,0.212,�k,5.0,��
2015/10/28,19:50,0.521,0.294,0.542,0.497,0.458,0.243,0.212,�k,4.4,��
2015/10/28,20:00,0.517,0.294,0.539,0.498,0.462,0.242,0.213,�k,4.2,��
2015/10/28,20:10,0.521,0.293,0.542,0.494,0.459,0.243,0.211,�k,4.2,��
2015/10/28,20:20,0.518,0.294,0.540,0.498,0.462,0.243,0.212,�k�k��,3.7,��
2015/10/28,20:30,0.519,0.294,0.541,0.496,0.458,0.244,0.214,�k,3.6,��
2015/10/28,20:40,0.516,0.293,0.540,0.499,0.463,0.242,0.211,�k,3.9,��
2015/10/28,20:50,0.520,0.295,0.543,0.496,0.456,0.242,0.212,�k,3.6,��
2015/10/28,21:00,0.516,0.293,0.539,0.500,0.463,0.241,0.213,�k,3.2,��
2015/10/28,21:10,0.522,0.295,0.543,0.493,0.458,0.244,0.214,�k,3.8,��
2015/10/28,21:20,0.516,0.293,0.537,0.498,0.463,0.241,0.212,�k,3.7,��
2015/10/28,21:30,0.521,0.294,0.543,0.495,0.457,0.243,0.213,�k,3.9,��
2015/10/28,21:40,0.517,0.292,0.538,0.498,0.463,0.242,0.212,�k,4.3,��
2015/10/28,21:50,0.522,0.296,0.543,0.494,0.458,0.242,0.213,�k,5.0,��
2015/10/28,22:00,0.516,0.293,0.539,0.500,0.462,0.243,0.212,�k,5.0,��
2015/10/28,22:10,0.520,0.295,0.544,0.494,0.458,0.243,0.211,�k,3.9,��
2015/10/28,22:20,0.517,0.292,0.539,0.498,0.464,0.241,0.213,�k,3.6,�L
2015/10/28,22:30,0.521,0.295,0.543,0.494,0.458,0.242,0.212,�k,4.9,��
2015/10/28,22:40,0.516,0.293,0.539,0.500,0.461,0.243,0.215,�k,5.2,��
2015/10/28,22:50,0.520,0.295,0.544,0.496,0.459,0.243,0.212,�k,5.3,��
2015/10/28,23:00,0.517,0.292,0.539,0.500,0.463,0.242,0.213,�k,4.7,��
2015/10/28,23:10,0.521,0.295,0.544,0.496,0.458,0.244,0.212,�k�k��,4.1,��
2015/10/28,23:20,0.515,0.293,0.539,0.499,0.462,0.243,0.214,�k,4.2,��
2015/10/28,23:30,0.521,0.295,0.545,0.494,0.458,0.242,0.213,�k�k��,4.2,��
2015/10/28,23:40,0.516,0.293,0.539,0.501,0.463,0.241,0.213,�k�k��,4.2,��
2015/10/28,23:50,0.521,0.294,0.542,0.495,0.457,0.243,0.213,�k,4.8,��
